When you browse on this site, cookies collect data to enhance your experience and personalize the content and advertising you see.
Visit our Privacy Policy to learn more. By continuing to use the site, you agree to this use of cookies and data.
  • En España
  • Lista de países
  • Para 7 días
  • Temperatura del agua
  • Mapa Satelital
  • El tiempo en el mapa
  • Informadores
  • user-avatar
    Iniciar sesión

    Tiempo cada hora Kifa

    Hoy, 19 Junio, Miércoles

    Tiempo Temperatura Precipitaciones Viento Presión Humedad
    00:00 +39°C° 0 mm 1 mps 745 mmHg 11%
    01:00 +39°C° 0 mm 1 mps 745 mmHg 12%
    02:00 +37°C° 0 mm 1 mps 745 mmHg 12%
    03:00 +37°C° 0 mm 3 mps 745 mmHg 15%
    04:00 +36°C° 0 mm 4 mps 745 mmHg 19%
    05:00 +36°C° 0 mm 3 mps 746 mmHg 15%
    06:00 +37°C° 0 mm 3 mps 746 mmHg 15%
    07:00 +38°C° 0 mm 3 mps 746 mmHg 16%
    08:00 +39°C° 0 mm 3 mps 747 mmHg 16%
    09:00 +42°C° 0 mm 3 mps 747 mmHg 13%
    10:00 +44°C° 0 mm 3 mps 747 mmHg 10%
    11:00 +46°C° 0 mm 2 mps 747 mmHg 7%
    12:00 +47°C° 0 mm 2 mps 746 mmHg 7%
    13:00 +48°C° 0 mm 3 mps 745 mmHg 6%
    14:00 +48°C° 0 mm 3 mps 744 mmHg 6%
    15:00 +49°C° 0 mm 4 mps 744 mmHg 6%
    16:00 +49°C° 0 mm 4 mps 744 mmHg 6%
    17:00 +49°C° 0 mm 5 mps 744 mmHg 6%
    18:00 +48°C° 0 mm 4 mps 744 mmHg 6%
    19:00 +47°C° 0 mm 4 mps 745 mmHg 7%
    20:00 +44°C° 0 mm 3 mps 745 mmHg 8%
    21:00 +43°C° 0 mm 3 mps 745 mmHg 8%
    22:00 +41°C° 0 mm 2 mps 745 mmHg 9%
    23:00 +40°C° 0 mm 1 mps 745 mmHg 9%

    Mañana, 20 Junio, Jueves

    Tiempo Temperatura Precipitaciones Viento Presión Humedad
    00:00 +40°C° 0 mm 2 mps 745 mmHg 10%
    01:00 +39°C° 0 mm 2 mps 744 mmHg 10%
    02:00 +39°C° 0 mm 3 mps 744 mmHg 10%
    03:00 +37°C° 0 mm 3 mps 744 mmHg 15%
    04:00 +36°C° 0 mm 4 mps 744 mmHg 19%
    05:00 +34°C° 0 mm 5 mps 745 mmHg 24%
    06:00 +35°C° 0 mm 4 mps 745 mmHg 22%
    07:00 +37°C° 0 mm 4 mps 746 mmHg 20%
    08:00 +38°C° 0 mm 3 mps 747 mmHg 18%
    09:00 +40°C° 0 mm 3 mps 747 mmHg 15%
    10:00 +43°C° 0 mm 3 mps 747 mmHg 13%
    11:00 +45°C° 0 mm 3 mps 747 mmHg 11%
    12:00 +45°C° 0 mm 3 mps 746 mmHg 10%
    13:00 +46°C° 0 mm 3 mps 745 mmHg 9%
    14:00 +47°C° 0 mm 3 mps 744 mmHg 9%
    15:00 +47°C° 0 mm 3 mps 744 mmHg 9%
    16:00 +47°C° 0 mm 3 mps 744 mmHg 9%
    17:00 +47°C° 0 mm 3 mps 744 mmHg 9%
    18:00 +46°C° 0 mm 3 mps 744 mmHg 10%
    19:00 +44°C° 0 mm 4 mps 744 mmHg 12%
    20:00 +43°C° 0 mm 4 mps 745 mmHg 13%
    21:00 +42°C° 0 mm 4 mps 745 mmHg 14%
    22:00 +41°C° 0 mm 4 mps 745 mmHg 15%
    23:00 +39°C° 0 mm 3 mps 745 mmHg 16%

    Pasado mañana, 21 Junio, Viernes

    Tiempo Temperatura Precipitaciones Viento Presión Humedad
    00:00 +39°C° 0 mm 3 mps 745 mmHg 17%
    01:00 +38°C° 0 mm 3 mps 745 mmHg 18%
    02:00 +37°C° 0 mm 3 mps 744 mmHg 19%
    03:00 +37°C° 0 mm 3 mps 745 mmHg 19%
    04:00 +36°C° 0 mm 3 mps 745 mmHg 20%
    05:00 +36°C° 0 mm 3 mps 745 mmHg 20%
    06:00 +37°C° 0 mm 3 mps 745 mmHg 18%
    07:00 +39°C° 0 mm 3 mps 746 mmHg 16%
    08:00 +40°C° 0 mm 3 mps 747 mmHg 14%
    09:00 +43°C° 0 mm 4 mps 746 mmHg 12%
    10:00 +45°C° 0 mm 4 mps 746 mmHg 10%
    11:00 +47°C° 0 mm 5 mps 746 mmHg 8%
    12:00 +48°C° 0 mm 4 mps 745 mmHg 8%
    13:00 +49°C° 0 mm 4 mps 745 mmHg 7%
    14:00 +49°C° 0 mm 4 mps 744 mmHg 7%
    15:00 +49°C° 0 mm 4 mps 744 mmHg 7%
    16:00 +49°C° 0 mm 4 mps 744 mmHg 7%
    17:00 +49°C° 0 mm 4 mps 743 mmHg 7%
    18:00 +47°C° 0 mm 4 mps 744 mmHg 8%
    19:00 +45°C° 0 mm 3 mps 744 mmHg 8%
    20:00 +44°C° 0 mm 3 mps 744 mmHg 9%
    21:00 +43°C° 0 mm 3 mps 745 mmHg 10%
    22:00 +42°C° 0 mm 4 mps 745 mmHg 11%
    23:00 +41°C° 0 mm 4 mps 745 mmHg 12%

    22 Junio, Sábado

    Tiempo Temperatura Precipitaciones Viento Presión Humedad
    00:00 +39°C° 0 mm 3 mps 745 mmHg 13%
    01:00 +38°C° 0 mm 3 mps 744 mmHg 14%
    02:00 +37°C° 0 mm 2 mps 744 mmHg 15%
    03:00 +36°C° 0 mm 2 mps 745 mmHg 17%
    04:00 +35°C° 0 mm 3 mps 745 mmHg 19%
    05:00 +34°C° 0 mm 3 mps 745 mmHg 21%
    06:00 +35°C° 0 mm 3 mps 746 mmHg 21%
    07:00 +35°C° 0 mm 4 mps 746 mmHg 22%
    08:00 +36°C° 0 mm 4 mps 747 mmHg 23%
    09:00 +38°C° 0 mm 3 mps 747 mmHg 20%
    10:00 +40°C° 0 mm 3 mps 747 mmHg 17%
    11:00 +43°C° 0 mm 3 mps 746 mmHg 13%
    12:00 +43°C° 0 mm 2 mps 746 mmHg 12%
    13:00 +45°C° 0 mm 2 mps 745 mmHg 11%
    14:00 +46°C° 0 mm 2 mps 745 mmHg 10%
    15:00 +46°C° 0 mm 2 mps 744 mmHg 10%
    16:00 +46°C° 0 mm 2 mps 744 mmHg 9%
    17:00 +46°C° 0 mm 2 mps 744 mmHg 9%
    18:00 +45°C° 0 mm 2 mps 744 mmHg 10%
    19:00 +44°C° 0 mm 3 mps 744 mmHg 11%
    20:00 +42°C° 0 mm 3 mps 745 mmHg 12%
    21:00 +42°C° 0 mm 3 mps 745 mmHg 13%
    22:00 +41°C° 0 mm 4 mps 745 mmHg 13%
    23:00 +40°C° 0 mm 4 mps 745 mmHg 13%

    23 Junio, Domingo

    Tiempo Temperatura Precipitaciones Viento Presión Humedad
    00:00 +38°C° 0 mm 4 mps 744 mmHg 14%
    01:00 +38°C° 0 mm 4 mps 744 mmHg 15%
    02:00 +37°C° 0 mm 4 mps 744 mmHg 15%
    03:00 +36°C° 0 mm 3 mps 744 mmHg 16%
    04:00 +35°C° 0 mm 3 mps 744 mmHg 17%
    05:00 +34°C° 0 mm 3 mps 744 mmHg 18%
    06:00 +35°C° 0 mm 3 mps 745 mmHg 19%
    07:00 +35°C° 0 mm 3 mps 746 mmHg 20%
    08:00 +36°C° 0 mm 4 mps 746 mmHg 21%
    09:00 +37°C° 0 mm 4 mps 746 mmHg 19%
    10:00 +40°C° 0 mm 4 mps 746 mmHg 18%
    11:00 +41°C° 0 mm 4 mps 745 mmHg 16%
    12:00 +42°C° 0 mm 3 mps 745 mmHg 14%
    13:00 +43°C° 0 mm 2 mps 744 mmHg 12%
    14:00 +44°C° 0 mm 1 mps 743 mmHg 10%
    15:00 +46°C° 0 mm 2 mps 743 mmHg 9%
    16:00 +46°C° 0 mm 2 mps 743 mmHg 9%
    17:00 +46°C° 0 mm 2 mps 743 mmHg 8%
    18:00 +45°C° 0 mm 2 mps 743 mmHg 10%
    19:00 +43°C° 0 mm 3 mps 744 mmHg 11%
    20:00 +42°C° 0 mm 4 mps 744 mmHg 12%
    21:00 +41°C° 0 mm 4 mps 744 mmHg 13%
    22:00 +41°C° 0 mm 4 mps 744 mmHg 13%
    23:00 +40°C° 0 mm 4 mps 745 mmHg 14%

    24 Junio, Lunes

    Tiempo Temperatura Precipitaciones Viento Presión Humedad
    00:00 +38°C° 0 mm 4 mps 744 mmHg 15%
    01:00 +37°C° 0 mm 4 mps 744 mmHg 16%
    02:00 +36°C° 0 mm 3 mps 744 mmHg 17%
    03:00 +35°C° 0 mm 3 mps 744 mmHg 18%
    04:00 +34°C° 0 mm 3 mps 744 mmHg 19%
    05:00 +33°C° 0 mm 3 mps 744 mmHg 19%
    06:00 +35°C° 0 mm 3 mps 744 mmHg 16%
    07:00 +37°C° 0 mm 4 mps 745 mmHg 13%
    08:00 +40°C° 0 mm 4 mps 745 mmHg 11%
    09:00 +42°C° 0 mm 4 mps 745 mmHg 9%
    10:00 +45°C° 0 mm 5 mps 745 mmHg 8%
    11:00 +47°C° 0 mm 5 mps 745 mmHg 7%
    12:00 +47°C° 0 mm 5 mps 744 mmHg 7%
    13:00 +48°C° 0 mm 5 mps 744 mmHg 6%
    14:00 +49°C° 0 mm 5 mps 743 mmHg 6%
    15:00 +49°C° 0 mm 5 mps 743 mmHg 6%
    16:00 +49°C° 0 mm 5 mps 743 mmHg 6%
    17:00 +49°C° 0 mm 5 mps 743 mmHg 6%
    18:00 +47°C° 0 mm 4 mps 743 mmHg 7%
    19:00 +44°C° 0 mm 3 mps 743 mmHg 7%
    20:00 +43°C° 0 mm 3 mps 744 mmHg 8%
    21:00 +42°C° 0 mm 3 mps 744 mmHg 9%
    22:00 +40°C° 0 mm 2 mps 744 mmHg 10%
    23:00 +39°C° 0 mm 2 mps 744 mmHg 10%
    Mostrar más